| time (UTC) | temp C | wind direction | speed KPH | gust KPH | rain 1hr cm | rain 24hr cm | rain mn cm | humidity % | barometer mb |
| 20260502183231 | 15 | 39 | 3.2 | 6.4 | 0.00 | 0.00 | 0.00 | 60 | 1012.0 |
| 20260502182731 | 15 | 42 | 4.8 | 6.4 | 0.00 | 0.00 | 0.00 | 59 | 1013.0 |
| 20260502182232 | 15 | 44 | 3.2 | 3.2 | 0.00 | 0.00 | 0.00 | 59 | 1013.0 |
| 20260502181731 | 15 | 43 | 3.2 | 4.8 | 0.00 | 0.00 | 0.00 | 60 | 1013.0 |
| 20260502181232 | 15 | 43 | 4.8 | 8.0 | 0.00 | 0.00 | 0.00 | 60 | 1013.0 |
| 20260502180731 | 14 | 44 | 8.0 | 11.3 | 0.00 | 0.00 | 0.00 | 61 | 1013.0 |
| 20260502180231 | 15 | 42 | 6.4 | 9.7 | 0.00 | 0.00 | 0.00 | 60 | 1013.0 |
| 20260502170232 | 13 | 131 | 3.2 | 3.2 | 0.00 | 0.00 | 0.00 | 71 | 1013.0 |
| 20260502164233 | 13 | 66 | 4.8 | 16.1 | 0.00 | 0.00 | 0.00 | 72 | 1013.0 |
| 20260502163732 | 13 | 138 | 3.2 | 6.4 | 0.00 | 0.00 | 0.00 | 73 | 1013.0 |
| 20260502163232 | 13 | 39 | 1.6 | 4.8 | 0.00 | 0.00 | 0.00 | 73 | 1014.0 |
| 20260502162732 | 13 | 80 | 3.2 | 6.4 | 0.00 | 0.00 | 0.00 | 73 | 1014.0 |
| 20260502162232 | 13 | 135 | 0.0 | 3.2 | 0.00 | 0.00 | 0.00 | 73 | 1014.0 |
| 20260502161732 | 13 | 76 | 1.6 | 4.8 | 0.00 | 0.00 | 0.00 | 73 | 1014.0 |
| 20260502161232 | 13 | 279 | 1.6 | 3.2 | 0.00 | 0.00 | 0.00 | 74 | 1014.0 |
| 20260502160731 | 13 | 47 | 0.0 | 3.2 | 0.00 | 0.00 | 0.00 | 76 | 1014.0 |
| 20260502160232 | 13 | 74 | 3.2 | 6.4 | 0.00 | 0.00 | 0.00 | 75 | 1014.0 |
| 20260502152232 | 13 | 84 | 4.8 | 8.0 | 0.00 | 0.00 | 0.00 | 74 | 1014.0 |
| 20260502151731 | 13 | 345 | 3.2 | 6.4 | 0.00 | 0.00 | 0.00 | 75 | 1014.0 |
| 20260502151231 | 13 | 189 | 0.0 | 1.6 | 0.00 | 0.00 | 0.00 | 75 | 1014.0 |
| 20260502150732 | 13 | 71 | 4.8 | 8.0 | 0.00 | 0.00 | 0.00 | 73 | 1014.0 |
| 20260502150232 | 13 | 254 | 0.0 | 1.6 | 0.00 | 0.00 | 0.00 | 74 | 1014.0 |
| 20260502130732 | 12 | 76 | 0.0 | 6.4 | 0.00 | 0.00 | 0.00 | 70 | 1013.0 |
| 20260502130232 | 12 | 297 | 0.0 | 3.2 | 0.00 | 0.00 | 0.00 | 71 | 1013.0 |
| 20260502123733 | 12 | 51 | 0.0 | 3.2 | 0.00 | 0.00 | 0.00 | 71 | 1013.0 |
| 20260502123234 | 12 | 35 | 3.2 | 8.0 | 0.00 | 0.00 | 0.00 | 72 | 1013.0 |
| 20260502122732 | 12 | 107 | 3.2 | 4.8 | 0.00 | 0.00 | 0.00 | 72 | 1013.0 |
| 20260502122232 | 12 | 226 | 0.0 | 3.2 | 0.00 | 0.00 | 0.00 | 73 | 1013.0 |
| 20260502121731 | 12 | 283 | 1.6 | 4.8 | 0.00 | 0.00 | 0.00 | 73 | 1013.0 |
| 20260502121232 | 12 | 59 | 4.8 | 6.4 | 0.00 | 0.00 | 0.00 | 73 | 1013.0 |
| 20260502120731 | 12 | 250 | 0.0 | 4.8 | 0.00 | 0.00 | 0.00 | 74 | 1013.0 |
| 20260502120231 | 12 | 293 | 1.6 | 4.8 | 0.00 | 0.00 | 0.00 | 74 | 1013.0 |
| 20260502115733 | 12 | 78 | 1.6 | 4.8 | 0.00 | 0.00 | 0.00 | 74 | 1013.0 |
| 20260502115232 | 12 | 104 | 0.0 | 3.2 | 0.00 | 0.00 | 0.00 | 75 | 1013.0 |
| 20260502114731 | 12 | 42 | 0.0 | 3.2 | 0.00 | 0.00 | 0.00 | 74 | 1013.0 |
| 20260502114232 | 12 | 29 | 0.0 | 1.6 | 0.00 | 0.00 | 0.00 | 75 | 1013.0 |
| 20260502113733 | 12 | 72 | 1.6 | 3.2 | 0.00 | 0.00 | 0.00 | 74 | 1013.0 |
| 20260502113231 | 12 | 0 | 0.0 | 0.0 | 0.00 | 0.00 | 0.00 | 74 | 1013.0 |
| 20260502112732 | 12 | 73 | 1.6 | 4.8 | 0.00 | 0.00 | 0.00 | 75 | 1013.0 |
| 20260502112231 | 12 | 70 | 1.6 | 6.4 | 0.00 | 0.00 | 0.00 | 75 | 1013.0 |
| 20260502111731 | 12 | 209 | 1.6 | 8.0 | 0.00 | 0.00 | 0.00 | 76 | 1013.0 |
| 20260502111231 | 12 | 115 | 3.2 | 8.0 | 0.00 | 0.00 | 0.00 | 76 | 1013.0 |
| 20260502110732 | 12 | 52 | 1.6 | 3.2 | 0.00 | 0.00 | 0.00 | 76 | 1013.0 |
| 20260502110232 | 12 | 0 | 0.0 | 0.0 | 0.00 | 0.00 | 0.00 | 78 | 1013.0 |
| 20260502105732 | 12 | 348 | 0.0 | 3.2 | 0.00 | 0.00 | 0.00 | 77 | 1013.0 |
| 20260502105232 | 12 | 107 | 0.0 | 1.6 | 0.00 | 0.00 | 0.00 | 77 | 1013.0 |
| 20260502104731 | 12 | 247 | 3.2 | 6.4 | 0.00 | 0.00 | 0.00 | 77 | 1013.0 |
| 20260502104231 | 12 | 190 | 0.0 | 3.2 | 0.00 | 0.00 | 0.00 | 75 | 1013.0 |
| 20260502103732 | 12 | 49 | 0.0 | 3.2 | 0.00 | 0.00 | 0.00 | 76 | 1013.0 |
| 20260502103231 | 12 | 253 | 1.6 | 4.8 | 0.00 | 0.00 | 0.00 | 77 | 1013.0 |
| 20260502102732 | 12 | 96 | 0.0 | 1.6 | 0.00 | 0.00 | 0.00 | 79 | 1013.0 |
| 20260502102231 | 12 | 29 | 0.0 | 3.2 | 0.00 | 0.00 | 0.00 | 80 | 1013.0 |
| 20260502101731 | 12 | 0 | 0.0 | 0.0 | 0.00 | 0.00 | 0.00 | 81 | 1013.0 |
| 20260502101232 | 12 | 245 | 3.2 | 6.4 | 0.00 | 0.00 | 0.00 | 81 | 1013.0 |
| 20260502100731 | 12 | 182 | 1.6 | 3.2 | 0.00 | 0.00 | 0.00 | 82 | 1013.0 |
| 20260502100232 | 12 | 126 | 0.0 | 3.2 | 0.00 | 0.00 | 0.00 | 83 | 1013.0 |
| 20260502091233 | 11 | 0 | 0.0 | 0.0 | 0.00 | 0.00 | 0.00 | 86 | 1013.0 |
| 20260502090731 | 11 | 258 | 0.0 | 3.2 | 0.00 | 0.00 | 0.00 | 86 | 1013.0 |
| 20260502090234 | 11 | 0 | 0.0 | 0.0 | 0.00 | 0.00 | 0.00 | 86 | 1013.0 |
| 20260502071231 | 11 | 0 | 0.0 | 0.0 | 0.00 | 0.00 | 0.00 | 86 | 1013.0 |
| 20260502070731 | 11 | 288 | 0.0 | 0.0 | 0.00 | 0.00 | 0.00 | 86 | 1013.0 |
| 20260502070232 | 11 | 0 | 0.0 | 0.0 | 0.00 | 0.00 | 0.00 | 86 | 1012.0 |
| 20260502065731 | 11 | 303 | 0.0 | 1.6 | 0.00 | 0.00 | 0.00 | 86 | 1013.0 |
| 20260502065231 | 11 | 0 | 0.0 | 0.0 | 0.00 | 0.00 | 0.00 | 87 | 1013.0 |
| 20260502064732 | 11 | 0 | 0.0 | 0.0 | 0.00 | 0.00 | 0.00 | 86 | 1013.0 |
| 20260502064231 | 11 | 292 | 0.0 | 3.2 | 0.00 | 0.00 | 0.00 | 86 | 1013.0 |
| 20260502063732 | 11 | 289 | 0.0 | 0.0 | 0.00 | 0.00 | 0.00 | 87 | 1013.0 |
| 20260502063231 | 11 | 0 | 0.0 | 0.0 | 0.00 | 0.00 | 0.00 | 86 | 1013.0 |
| 20260502062732 | 11 | 0 | 0.0 | 0.0 | 0.00 | 0.00 | 0.00 | 86 | 1013.0 |
| 20260502062232 | 11 | 275 | 4.8 | 6.4 | 0.00 | 0.00 | 0.00 | 85 | 1013.0 |
| 20260502061731 | 11 | 268 | 1.6 | 3.2 | 0.00 | 0.00 | 0.00 | 86 | 1013.0 |
| 20260502061231 | 11 | 0 | 0.0 | 0.0 | 0.00 | 0.00 | 0.00 | 86 | 1013.0 |
| 20260502060731 | 11 | 256 | 1.6 | 3.2 | 0.00 | 0.00 | 0.00 | 86 | 1013.0 |
| 20260502060231 | 11 | 248 | 1.6 | 4.8 | 0.00 | 0.00 | 0.00 | 86 | 1012.0 |
| 20260502055731 | 11 | 261 | 0.0 | 1.6 | 0.00 | 0.00 | 0.00 | 86 | 1012.0 |
| 20260502055232 | 11 | 0 | 0.0 | 0.0 | 0.00 | 0.00 | 0.00 | 87 | 1013.0 |
| 20260502054731 | 11 | 0 | 0.0 | 0.0 | 0.00 | 0.00 | 0.00 | 87 | 1013.0 |
| 20260502054231 | 11 | 0 | 0.0 | 0.0 | 0.00 | 0.00 | 0.00 | 87 | 1013.0 |
| 20260502053731 | 11 | 0 | 0.0 | 0.0 | 0.00 | 0.00 | 0.00 | 87 | 1013.0 |
| 20260502053231 | 11 | 0 | 0.0 | 0.0 | 0.00 | 0.00 | 0.00 | 87 | 1013.0 |
| 20260502052732 | 11 | 239 | 0.0 | 1.6 | 0.00 | 0.00 | 0.00 | 87 | 1013.0 |
| 20260502052232 | 11 | 0 | 0.0 | 0.0 | 0.00 | 0.00 | 0.00 | 86 | 1013.0 |
| 20260502051732 | 11 | 0 | 0.0 | 0.0 | 0.00 | 0.00 | 0.00 | 87 | 1013.0 |
| 20260502051235 | 11 | 0 | 0.0 | 0.0 | 0.00 | 0.00 | 0.00 | 86 | 1013.0 |
| 20260502050731 | 11 | 0 | 0.0 | 0.0 | 0.00 | 0.00 | 0.00 | 86 | 1013.0 |
| 20260502050232 | 12 | 0 | 0.0 | 0.0 | 0.00 | 0.00 | 0.00 | 86 | 1013.0 |
| 20260502045731 | 12 | 0 | 0.0 | 0.0 | 0.00 | 0.00 | 0.00 | 85 | 1013.0 |
| 20260502045233 | 12 | 246 | 3.2 | 3.2 | 0.00 | 0.00 | 0.00 | 85 | 1013.0 |
| 20260502044731 | 12 | 290 | 0.0 | 3.2 | 0.00 | 0.00 | 0.00 | 85 | 1013.0 |
| 20260502044233 | 12 | 250 | 0.0 | 3.2 | 0.00 | 0.00 | 0.00 | 85 | 1013.0 |
| 20260502043732 | 12 | 255 | 3.2 | 4.8 | 0.00 | 0.00 | 0.00 | 85 | 1013.0 |
| 20260502043232 | 12 | 283 | 0.0 | 4.8 | 0.00 | 0.00 | 0.00 | 85 | 1013.0 |
| 20260502042732 | 12 | 258 | 1.6 | 4.8 | 0.00 | 0.00 | 0.00 | 85 | 1013.0 |
| 20260502042232 | 12 | 269 | 3.2 | 6.4 | 0.00 | 0.00 | 0.00 | 85 | 1013.0 |
| 20260502041731 | 12 | 256 | 0.0 | 3.2 | 0.00 | 0.00 | 0.00 | 86 | 1013.0 |
| 20260502041231 | 12 | 276 | 1.6 | 4.8 | 0.00 | 0.00 | 0.00 | 86 | 1013.0 |
| 20260502040731 | 12 | 0 | 0.0 | 0.0 | 0.00 | 0.00 | 0.00 | 86 | 1013.0 |
| 20260502040231 | 12 | 0 | 0.0 | 0.0 | 0.00 | 0.00 | 0.00 | 86 | 1013.0 |
| 20260502035732 | 12 | 271 | 1.6 | 3.2 | 0.00 | 0.00 | 0.00 | 86 | 1013.0 |
| 20260502035231 | 12 | 273 | 0.0 | 3.2 | 0.00 | 0.00 | 0.00 | 85 | 1013.0 |
| 20260502034731 | 12 | 251 | 1.6 | 3.2 | 0.00 | 0.00 | 0.00 | 85 | 1014.0 |
| 20260502034240 | 12 | 284 | 6.4 | 8.0 | 0.00 | 0.00 | 0.00 | 85 | 1014.0 |
| 20260502033732 | 12 | 283 | 3.2 | 4.8 | 0.00 | 0.00 | 0.00 | 85 | 1014.0 |
| 20260502033232 | 12 | 236 | 0.0 | 3.2 | 0.00 | 0.00 | 0.00 | 84 | 1014.0 |
| 20260502032731 | 12 | 295 | 0.0 | 3.2 | 0.00 | 0.00 | 0.00 | 84 | 1013.0 |
| 20260502032232 | 12 | 263 | 0.0 | 3.2 | 0.00 | 0.00 | 0.00 | 84 | 1013.0 |
| 20260502031732 | 12 | 271 | 3.2 | 6.4 | 0.00 | 0.00 | 0.00 | 84 | 1013.0 |
| 20260502031233 | 12 | 290 | 3.2 | 4.8 | 0.00 | 0.00 | 0.00 | 83 | 1013.0 |
| 20260502030735 | 12 | 268 | 3.2 | 6.4 | 0.00 | 0.00 | 0.00 | 83 | 1013.0 |
| 20260502030231 | 12 | 268 | 3.2 | 6.4 | 0.00 | 0.00 | 0.00 | 83 | 1014.0 |
| 20260502025732 | 12 | 300 | 0.0 | 3.2 | 0.00 | 0.00 | 0.00 | 82 | 1014.0 |
| 20260502025232 | 12 | 209 | 0.0 | 1.6 | 0.00 | 0.00 | 0.00 | 82 | 1014.0 |
| 20260502024731 | 12 | 244 | 0.0 | 3.2 | 0.00 | 0.00 | 0.00 | 82 | 1014.0 |
| 20260502024231 | 12 | 266 | 0.0 | 3.2 | 0.00 | 0.00 | 0.00 | 81 | 1014.0 |
| 20260502023731 | 12 | 293 | 1.6 | 4.8 | 0.00 | 0.00 | 0.00 | 81 | 1014.0 |
| 20260502023232 | 12 | 282 | 6.4 | 9.7 | 0.00 | 0.00 | 0.00 | 81 | 1014.0 |
| 20260502022732 | 12 | 279 | 4.8 | 6.4 | 0.00 | 0.00 | 0.00 | 80 | 1013.0 |
| 20260502022231 | 12 | 276 | 1.6 | 4.8 | 0.00 | 0.00 | 0.00 | 80 | 1014.0 |
| 20260502021732 | 12 | 284 | 4.8 | 6.4 | 0.00 | 0.00 | 0.00 | 80 | 1014.0 |
| 20260502021231 | 12 | 292 | 3.2 | 6.4 | 0.00 | 0.00 | 0.00 | 79 | 1014.0 |
| 20260502020732 | 12 | 262 | 0.0 | 3.2 | 0.00 | 0.00 | 0.00 | 79 | 1014.0 |
| 20260502020231 | 12 | 272 | 4.8 | 6.4 | 0.00 | 0.00 | 0.00 | 78 | 1014.0 |
| 20260502015732 | 12 | 259 | 1.6 | 4.8 | 0.00 | 0.00 | 0.00 | 78 | 1014.0 |
| 20260502015232 | 12 | 270 | 3.2 | 6.4 | 0.00 | 0.00 | 0.00 | 77 | 1014.0 |
| 20260502014732 | 12 | 295 | 3.2 | 4.8 | 0.00 | 0.00 | 0.00 | 76 | 1014.0 |
| 20260502014233 | 12 | 244 | 0.0 | 1.6 | 0.00 | 0.00 | 0.00 | 76 | 1013.0 |
| 20260502013732 | 13 | 294 | 3.2 | 4.8 | 0.00 | 0.00 | 0.00 | 75 | 1013.0 |
| 20260502013231 | 13 | 258 | 0.0 | 3.2 | 0.00 | 0.00 | 0.00 | 75 | 1014.0 |
| 20260502012731 | 13 | 265 | 3.2 | 4.8 | 0.00 | 0.00 | 0.00 | 74 | 1014.0 |
| 20260502012231 | 13 | 244 | 1.6 | 3.2 | 0.00 | 0.00 | 0.00 | 74 | 1014.0 |
| 20260502011732 | 13 | 254 | 0.0 | 3.2 | 0.00 | 0.00 | 0.00 | 74 | 1013.0 |
| 20260502011231 | 13 | 262 | 3.2 | 6.4 | 0.00 | 0.00 | 0.00 | 73 | 1014.0 |
| 20260502010731 | 13 | 294 | 3.2 | 4.8 | 0.00 | 0.00 | 0.00 | 73 | 1013.0 |
| 20260502010232 | 13 | 257 | 3.2 | 4.8 | 0.00 | 0.00 | 0.00 | 72 | 1013.0 |
| 20260502005731 | 13 | 277 | 0.0 | 3.2 | 0.00 | 0.00 | 0.00 | 72 | 1013.0 |
| 20260502005231 | 13 | 260 | 3.2 | 4.8 | 0.00 | 0.00 | 0.00 | 72 | 1013.0 |
| 20260502004732 | 13 | 0 | 0.0 | 0.0 | 0.00 | 0.00 | 0.00 | 72 | 1013.0 |
| 20260502004231 | 13 | 264 | 0.0 | 3.2 | 0.00 | 0.00 | 0.00 | 71 | 1013.0 |
| 20260502003731 | 13 | 289 | 0.0 | 3.2 | 0.00 | 0.00 | 0.00 | 71 | 1013.0 |
| 20260502003232 | 13 | 7 | 0.0 | 6.4 | 0.00 | 0.00 | 0.00 | 71 | 1013.0 |
| 20260502002731 | 13 | 288 | 3.2 | 4.8 | 0.00 | 0.00 | 0.00 | 71 | 1013.0 |
| 20260502002231 | 13 | 247 | 0.0 | 1.6 | 0.00 | 0.00 | 0.00 | 71 | 1013.0 |
| 20260502001733 | 13 | 61 | 0.0 | 1.6 | 0.00 | 0.00 | 0.00 | 71 | 1013.0 |
| 20260502001231 | 13 | 350 | 0.0 | 3.2 | 0.00 | 0.00 | 0.00 | 71 | 1013.0 |
| 20260502000732 | 14 | 286 | 1.6 | 3.2 | 0.00 | 0.00 | 0.00 | 70 | 1013.0 |
| 20260502000233 | 14 | 255 | 1.6 | 3.2 | 0.00 | 0.00 | 0.00 | 71 | 1013.0 |
| 20260501235732 | 14 | 270 | 1.6 | 3.2 | 0.00 | 0.00 | 0.00 | 70 | 1013.0 |
| 20260501235231 | 15 | 228 | 0.0 | 3.2 | 0.00 | 0.00 | 0.00 | 69 | 1013.0 |
| 20260501234735 | 15 | 242 | 1.6 | 4.8 | 0.00 | 0.00 | 0.00 | 69 | 1013.0 |
| 20260501234231 | 15 | 212 | 1.6 | 3.2 | 0.00 | 0.00 | 0.00 | 68 | 1013.0 |
| 20260501233731 | 15 | 170 | 1.6 | 6.4 | 0.00 | 0.00 | 0.00 | 68 | 1013.0 |
| 20260501233232 | 15 | 235 | 3.2 | 4.8 | 0.00 | 0.00 | 0.00 | 67 | 1013.0 |
| 20260501232732 | 15 | 232 | 4.8 | 8.0 | 0.00 | 0.00 | 0.00 | 66 | 1013.0 |
| 20260501232232 | 15 | 229 | 1.6 | 3.2 | 0.00 | 0.00 | 0.00 | 66 | 1013.0 |
| 20260501231731 | 15 | 228 | 3.2 | 4.8 | 0.00 | 0.00 | 0.00 | 67 | 1013.0 |
| 20260501231231 | 15 | 230 | 3.2 | 4.8 | 0.00 | 0.00 | 0.00 | 66 | 1013.0 |
| 20260501230732 | 15 | 233 | 6.4 | 6.4 | 0.00 | 0.00 | 0.00 | 66 | 1013.0 |
| 20260501230232 | 15 | 229 | 3.2 | 4.8 | 0.00 | 0.00 | 0.00 | 65 | 1013.0 |
| 20260501225731 | 16 | 228 | 4.8 | 6.4 | 0.00 | 0.00 | 0.00 | 64 | 1013.0 |
| 20260501225232 | 16 | 229 | 4.8 | 8.0 | 0.00 | 0.00 | 0.00 | 64 | 1013.0 |
| 20260501224732 | 16 | 228 | 3.2 | 6.4 | 0.00 | 0.00 | 0.00 | 63 | 1013.0 |
| 20260501224231 | 16 | 230 | 3.2 | 6.4 | 0.00 | 0.00 | 0.00 | 63 | 1013.0 |
| 20260501223732 | 16 | 229 | 3.2 | 6.4 | 0.00 | 0.00 | 0.00 | 64 | 1013.0 |
| 20260501223231 | 16 | 229 | 4.8 | 6.4 | 0.00 | 0.00 | 0.00 | 62 | 1013.0 |
| 20260501222732 | 16 | 230 | 3.2 | 6.4 | 0.00 | 0.00 | 0.00 | 61 | 1013.0 |
| 20260501222231 | 16 | 257 | 3.2 | 4.8 | 0.00 | 0.00 | 0.00 | 60 | 1013.0 |
| 20260501221732 | 16 | 37 | 0.0 | 4.8 | 0.00 | 0.00 | 0.00 | 61 | 1013.0 |
| 20260501221232 | 16 | 292 | 3.2 | 4.8 | 0.00 | 0.00 | 0.00 | 62 | 1013.0 |
| 20260501220731 | 16 | 30 | 6.4 | 9.7 | 0.00 | 0.00 | 0.00 | 60 | 1013.0 |
| 20260501220231 | 16 | 348 | 1.6 | 4.8 | 0.00 | 0.00 | 0.00 | 60 | 1013.0 |
| 20260501215731 | 17 | 134 | 4.8 | 9.7 | 0.00 | 0.00 | 0.00 | 59 | 1013.0 |
| 20260501215232 | 17 | 236 | 4.8 | 8.0 | 0.00 | 0.00 | 0.00 | 58 | 1013.0 |
| 20260501214731 | 17 | 24 | 4.8 | 6.4 | 0.00 | 0.00 | 0.00 | 57 | 1013.0 |
| 20260501214232 | 17 | 351 | 3.2 | 4.8 | 0.00 | 0.00 | 0.00 | 57 | 1013.0 |
| 20260501213731 | 17 | 274 | 6.4 | 11.3 | 0.00 | 0.00 | 0.00 | 57 | 1013.0 |
| 20260501213232 | 17 | 289 | 4.8 | 9.7 | 0.00 | 0.00 | 0.00 | 57 | 1013.0 |
| 20260501212732 | 17 | 245 | 3.2 | 6.4 | 0.00 | 0.00 | 0.00 | 56 | 1013.0 |
| 20260501212231 | 17 | 191 | 1.6 | 3.2 | 0.00 | 0.00 | 0.00 | 57 | 1013.0 |
| 20260501211731 | 17 | 282 | 6.4 | 12.9 | 0.00 | 0.00 | 0.00 | 56 | 1013.0 |
| 20260501211232 | 17 | 267 | 4.8 | 6.4 | 0.00 | 0.00 | 0.00 | 55 | 1013.0 |
| 20260501210734 | 17 | 242 | 3.2 | 14.5 | 0.00 | 0.00 | 0.00 | 55 | 1013.0 |
| 20260501210232 | 17 | 277 | 9.7 | 19.3 | 0.00 | 0.00 | 0.00 | 55 | 1013.0 |
| 20260501205732 | 17 | 292 | 6.4 | 11.3 | 0.00 | 0.00 | 0.00 | 55 | 1013.0 |
| 20260501205231 | 18 | 294 | 8.0 | 16.1 | 0.00 | 0.00 | 0.00 | 54 | 1013.0 |
| 20260501204731 | 18 | 284 | 6.4 | 14.5 | 0.00 | 0.00 | 0.00 | 53 | 1013.0 |
| 20260501204232 | 18 | 270 | 3.2 | 4.8 | 0.00 | 0.00 | 0.00 | 50 | 1013.0 |
| 20260501203732 | 18 | 182 | 3.2 | 4.8 | 0.00 | 0.00 | 0.00 | 49 | 1013.0 |
| 20260501203231 | 19 | 33 | 3.2 | 8.0 | 0.00 | 0.00 | 0.00 | 47 | 1013.0 |
| 20260501202732 | 18 | 19 | 3.2 | 8.0 | 0.00 | 0.00 | 0.00 | 48 | 1013.0 |
| 20260501202233 | 18 | 270 | 6.4 | 11.3 | 0.00 | 0.00 | 0.00 | 48 | 1013.0 |
| 20260501201732 | 18 | 351 | 3.2 | 8.0 | 0.00 | 0.00 | 0.00 | 48 | 1013.0 |
| 20260501201231 | 18 | 255 | 1.6 | 4.8 | 0.00 | 0.00 | 0.00 | 48 | 1013.0 |
| 20260501200731 | 19 | 268 | 9.7 | 19.3 | 0.00 | 0.00 | 0.00 | 47 | 1013.0 |
| 20260501200233 | 19 | 248 | 4.8 | 9.7 | 0.00 | 0.00 | 0.00 | 47 | 1013.0 |
| 20260501195731 | 19 | 319 | 4.8 | 12.9 | 0.00 | 0.00 | 0.00 | 47 | 1013.0 |
| 20260501195232 | 19 | 268 | 6.4 | 9.7 | 0.00 | 0.00 | 0.00 | 46 | 1013.0 |
| 20260501194731 | 19 | 271 | 3.2 | 6.4 | 0.00 | 0.00 | 0.00 | 46 | 1013.0 |
| 20260501194232 | 19 | 321 | 3.2 | 6.4 | 0.00 | 0.00 | 0.00 | 45 | 1014.0 |
| 20260501193732 | 19 | 311 | 6.4 | 8.0 | 0.00 | 0.00 | 0.00 | 46 | 1014.0 |
| 20260501193232 | 19 | 13 | 4.8 | 12.9 | 0.00 | 0.00 | 0.00 | 45 | 1014.0 |
| 20260501192732 | 19 | 94 | 1.6 | 4.8 | 0.00 | 0.00 | 0.00 | 45 | 1014.0 |
| 20260501192232 | 18 | 278 | 8.0 | 14.5 | 0.00 | 0.00 | 0.00 | 45 | 1014.0 |
| 20260501191732 | 18 | 231 | 4.8 | 6.4 | 0.00 | 0.00 | 0.00 | 45 | 1014.0 |
| 20260501191231 | 19 | 294 | 8.0 | 12.9 | 0.00 | 0.00 | 0.00 | 44 | 1014.0 |
| 20260501190732 | 20 | 30 | 1.6 | 4.8 | 0.00 | 0.00 | 0.00 | 43 | 1014.0 |
| 20260501190231 | 20 | 224 | 3.2 | 8.0 | 0.00 | 0.00 | 0.00 | 43 | 1014.0 |
| 20260501185734 | 20 | 306 | 3.2 | 6.4 | 0.00 | 0.00 | 0.00 | 42 | 1014.0 |
| 20260501185232 | 20 | 62 | 4.8 | 9.7 | 0.00 | 0.00 | 0.00 | 40 | 1014.0 |
| 20260501184731 | 20 | 358 | 4.8 | 9.7 | 0.00 | 0.00 | 0.00 | 42 | 1014.0 |
| 20260501184232 | 20 | 315 | 3.2 | 11.3 | 0.00 | 0.00 | 0.00 | 42 | 1014.0 |
| 20260501183731 | 19 | 219 | 4.8 | 8.0 | 0.00 | 0.00 | 0.00 | 42 | 1014.0 |